Location: *
(57.8420°S, 159.8600°W)
Time: 04:15:34
(UTC+00:00)

Envisat - Pass Details

Date: 18 May 2021
Orbit: 764 x 766 km, 98.1° (Epoch: 23 June)

Event Time Altitude Azimuth Distance (km) Brightness Sun altitude
Exits shadow 05:18:06 - 166° (SSE) 3,244 6.1 -22.1°
Reaches altitude 10° 05:20:23 10° 171° (S) 2,348 5.4 -22.4°
Maximum altitude 05:25:21 49° 243° (WSW) 1,010 3.9 -23.0°
Drops below altitude 10° 05:30:17 10° 316° (NW) 2,326 6.0 -23.7°
Sets 05:32:38 0° 322° (NW) 3,246 6.8 -24.0°
